Showing default

LES 2, 1360

Orbit data source: Space-Track

LES 2, 1360 is a payload satellite owned by USAF SSD (US) in HEO that was launched on Thu, 06 May 1965 UTC via a TITAN IIIA launch vehicle from the Air Force Eastern Test Range (AFETR). Payload-class satellites include a variety of spacecraft equipped with specific instruments for various scientific and technological missions. These include communications satellites like Starlink; space stations such as the ISS; scientific satellites like the Hubble; Earth observation satellites from companies like Planet Labs, Umbra, and HawkEye 360; GPS; miniature CubeSats for education and research; and military/defense satellites.

Loading next visibility...
Identifier
1360, 1965-034B
Orbit
HEO
Last TLE update
6 days ago
Origin
Manufacturer
MIT-LL
Mission
Defense Communications
Bus & Motor
LES, STAR 13A
Mass
37 kg wet, 37 kg dry
Launch date (UTC)
1965-05-06 (60 years ago)
Launch vehicle
TITAN IIIA
Launch site
Air Force Eastern Test Range (AFETR)
Object type
Payload
Rocket body
Debris
Shape & HBR
Poly, 0.6 m
Radar Cross Section
0.411 m², Medium (>0.1 m² and < 1m²)

Expand to show TLE details & history

TLE from 6 days ago
0 LES 2
1 01360U 65034B   25187.16436350  .00000010  00000-0  00000-0 0  9990
2 01360  32.0831 222.8469 3966114 106.6853 299.6960  4.64830267 21779
Epoch: 2025-07-06T03:56Z
TLE epoch observation values (Epoch: 2025-07-06T03:56:41.006Z)
Latitude
0.00001°
Longitude
-120.69378°
Altitude
8,035.994 km
Speed
5.388 km/s
True Right ascension
14h 51m 28s
True Declination
0° 00' 00"
Sunlit
Object was in daylight at epoch
Visualization orbit readout
Latitude
2.72945°
Longitude
-119.68559°
Altitude
8,030.935 km
Speed
5.39 km/s
Apparent Right ascension
16h 08m 27s
Apparent Declination
-16° 05' 10"
Sunlit
Object is in daylight
Visualization observer readout
Local Sidereal Time
11:41:02
Azimuth
117.241° SE
Elevation
6.424°
Doppler factor
1
Orbital elements
Apogee altitude
14,805.967 km
Perigee altitude
2,774.192 km
Semi-major axis
15,168.216 km
Eccentricity
0.39661
Inclination
32.0831°
RAAN
222.8469°
Arg. of periapsis
106.6853°
True anomaly
Unknown
Mean anomaly
299.696°
Eccentric anomaly
Unknown
Mean motion
1.16183 °/min
Orbital period
309.86 mins
BSTAR
0
Loading maneuver chart data...
Loading SW <> Apogee altitude chart data...
Loading historical data...
Loading historical data...
Loading historical data...
Loading historical data...
Loading historical data...
Loading historical data...
Loading historical data...
Other satellites on launch #34 in the year 1965 (1965-05-06 UTC)

LES 2 Visibility forecast

Observer location: undefined°, undefined°

Span
Click to sort rows by Start time (UTC) header in descending order
Start Az.
Max El. time (UTC)
Max El. Az.
Max El.
End time (UTC)
End Az.
58 mins2025-07-12 04:17:02.878Z227.093° WSW2025-07-12 05:00:02.878Z157.304° SSE38.463°2025-07-12 05:15:02.878Z87.558° E
28 mins2025-07-12 10:21:02.878Z270.515° WNW2025-07-12 10:34:02.878Z196.847° SSW38.817°2025-07-12 10:49:02.878Z125.513° SE
|